Tracking 23114 objects as of 14-May-2021
HD Live streaming from Space Station
objects crossing your sky now

STARLINK-2491

Track STARLINK-2491 now!
10-day predictions
STARLINK-2491 is classified as:


NORAD ID: 48148
Int'l Code: 2021-027BJ
Perigee: 387.2 km
Apogee: 390.9 km
Inclination: 53.0 °
Period: 92.2 minutes
Semi major axis: 6760 km
RCS: Unknown
Launch date: April 7, 2021
Source: United States (US)
Launch site: AIR FORCE EASTERN TEST RANGE (AFETR)
aabbcc
Your satellite tracking list
Your tracking list is empty




NASA's NSSDC Master Catalog

Two Line Element Set (TLE):
1 48148U 21027BJ  21133.83334491 -.01192302  00000-0 -14900-1 0  9997
2 48148  53.0466 160.9442 0002742  10.8744 319.7834 15.61981475  6554
Source of the keplerian elements: AFSPC